,,,PA_Meas_PMT16A,,PR_Meas_QMR101_102,,RH_Meas_QMH101,,SR_Meas_QMS101,,TA_Meas_QMH101,,GenWind,,GenWind,
date,time,status,PA,status,PR,status,RH,status,SR,status,TA,status,DirAvg,status,SpdAvg,
2011-10-04, 00:00:04,VALID,999.905,VALID,0,VALID,93.3026,VALID,0,VALID,22.7257,VALID,96,VALID,0.512891,
2011-10-04, 00:01:04,VALID,999.869,VALID,0,VALID,93.3179,VALID,0,VALID,22.7257,VALID,96,VALID,0.428516,
2011-10-04, 00:02:04,VALID,999.849,VALID,0,VALID,93.3026,VALID,0,VALID,22.7257,VALID,96,VALID,0.634766,
2011-10-04, 00:03:04,VALID,999.82,VALID,0,VALID,93.3331,VALID,0,VALID,22.7257,VALID,96,VALID,0.715625,
2011-10-04, 00:04:04,VALID,999.822,VALID,0,VALID,93.3408,VALID,0,VALID,22.7647,VALID,96,VALID,0.764453,
2011-10-04, 00:05:04,VALID,999.818,VALID,0,VALID,93.3408,VALID,0,VALID,22.7842,VALID,96,VALID,1.01719,
2011-10-04, 00:06:04,VALID,999.794,VALID,0,VALID,93.3026,VALID,0,VALID,22.7842,VALID,96,VALID,1.2207,
2011-10-04, 00:07:04,VALID,999.808,VALID,0,VALID,93.2416,VALID,0,VALID,22.786,VALID,96,VALID,1.37305,
2011-10-04, 00:08:04,VALID,999.82,VALID,0,VALID,93.2034,VALID,0,VALID,22.7842,VALID,96,VALID,1.24297,
2011-10-04, 00:09:04,VALID,999.783,VALID,0,VALID,93.1577,VALID,0,VALID,22.7842,VALID,96,VALID,1.27344,
2011-10-04, 00:10:04,VALID,999.79,VALID,0,VALID,93.089,VALID,0,VALID,22.7842,VALID,96,VALID,1.06016,
2011-10-04, 00:11:04,VALID,999.801,VALID,0,VALID,93.0814,VALID,0,VALID,22.8037,VALID,96,VALID,0.655469,
2011-10-04, 00:12:04,VALID,999.796,VALID,0,VALID,93.0203,VALID,0,VALID,22.8055,VALID,96,VALID,0.481641,
2011-10-04, 00:13:04,VALID,999.742,VALID,0,VALID,92.9517,VALID,0,VALID,22.7647,VALID,96,VALID,0.289453,
2011-10-04, 00:14:04,VALID,999.764,VALID,0,VALID,92.8754,VALID,0,VALID,22.7257,VALID,96,VALID,0.08125,
2011-10-04, 00:15:04,VALID,999.712,VALID,0,VALID,92.7991,VALID,0,VALID,22.6867,VALID,96,VALID,0.00195313,
2011-10-04, 00:16:04,VALID,999.666,VALID,0,VALID,92.7762,VALID,0,VALID,22.6672,VALID,96,VALID,0.245312,
2011-10-04, 00:17:04,VALID,999.646,VALID,0,VALID,92.7533,VALID,0,VALID,22.6282,VALID,96,VALID,0.344531,
2011-10-04, 00:18:04,VALID,999.618,VALID,0,VALID,92.7304,VALID,0,VALID,22.5892,VALID,96,VALID,0.419922,
2011-10-04, 00:19:04,VALID,999.601,VALID,0,VALID,92.677,VALID,0,VALID,22.5111,VALID,96,VALID,0.742578,
2011-10-04, 00:20:04,VALID,999.589,VALID,0,VALID,92.677,VALID,0,VALID,22.4721,VALID,96,VALID,0.808203,
2011-10-04, 00:21:04,VALID,999.545,VALID,0,VALID,92.7838,VALID,0,VALID,22.4721,VALID,96,VALID,0.646094,
2011-10-04, 00:22:04,VALID,999.549,VALID,0,VALID,92.883,VALID,0,VALID,22.4704,VALID,96,VALID,0.529688,
2011-10-04, 00:23:04,VALID,999.522,VALID,0,VALID,92.9974,VALID,0,VALID,22.4721,VALID,96,VALID,0.4625,
2011-10-04, 00:24:04,VALID,999.488,VALID,0,VALID,93.0661,VALID,0,VALID,22.4721,VALID,96,VALID,0.55625,
2011-10-04, 00:25:04,VALID,999.498,VALID,0,VALID,93.15,VALID,0,VALID,22.4721,VALID,96,VALID,0.606641,
2011-10-04, 00:26:04,VALID,999.485,VALID,0,VALID,93.1653,VALID,0,VALID,22.4526,VALID,96,VALID,0.809375,
2011-10-04, 00:27:04,VALID,999.489,VALID,0,VALID,93.2034,VALID,0,VALID,22.4331,VALID,96,VALID,0.851563,
2011-10-04, 00:28:04,VALID,999.458,VALID,0,VALID,93.2187,VALID,0,VALID,22.4136,VALID,96,VALID,0.956641,
2011-10-04, 00:29:04,VALID,999.431,VALID,0,VALID,93.2416,VALID,0,VALID,22.3941,VALID,96,VALID,1.13711,
2011-10-04, 00:30:04,VALID,999.412,VALID,0,VALID,93.2797,VALID,0,VALID,22.4331,VALID,96,VALID,1.20586,
2011-10-04, 00:31:04,VALID,999.431,VALID,0,VALID,93.2797,VALID,0,VALID,22.4136,VALID,96,VALID,1.04727,
2011-10-04, 00:32:04,VALID,999.407,VALID,0,VALID,93.3103,VALID,0,VALID,22.4119,VALID,96,VALID,0.912109,
2011-10-04, 00:33:04,VALID,999.43,VALID,0,VALID,93.3179,VALID,0,VALID,22.4331,VALID,96,VALID,0.826953,
2011-10-04, 00:34:04,VALID,999.404,VALID,0,VALID,93.3026,VALID,0,VALID,22.4331,VALID,96,VALID,0.700781,
2011-10-04, 00:35:04,VALID,999.391,VALID,0,VALID,93.3026,VALID,0,VALID,22.4136,VALID,96,VALID,0.641406,
2011-10-04, 00:36:04,VALID,999.353,VALID,0,VALID,93.2721,VALID,0,VALID,22.3941,VALID,96,VALID,0.480859,
2011-10-04, 00:37:04,VALID,999.331,VALID,0,VALID,93.2492,VALID,0,VALID,22.3551,VALID,96,VALID,0.487891,
2011-10-04, 00:38:04,VALID,999.312,VALID,0,VALID,93.2416,VALID,0,VALID,22.3356,VALID,96,VALID,0.558984,
2011-10-04, 00:39:04,VALID,999.284,VALID,0,VALID,93.2263,VALID,0,VALID,22.3178,VALID,96,VALID,0.551172,
2011-10-04, 00:40:04,VALID,999.233,VALID,0,VALID,93.2416,VALID,0,VALID,22.2966,VALID,96,VALID,0.739453,
2011-10-04, 00:41:04,VALID,999.214,VALID,0,VALID,93.3179,VALID,0,VALID,22.3161,VALID,96,VALID,0.695703,
2011-10-04, 00:42:04,VALID,999.202,VALID,0,VALID,93.3713,VALID,0,VALID,22.3746,VALID,96,VALID,0.810547,
2011-10-04, 00:43:04,VALID,999.171,VALID,0,VALID,93.4094,VALID,0,VALID,22.3941,VALID,96,VALID,0.730078,
2011-10-04, 00:44:04,VALID,999.164,VALID,0,VALID,93.4476,VALID,0,VALID,22.4136,VALID,96,VALID,0.639453,
2011-10-04, 00:45:04,VALID,999.179,VALID,0,VALID,93.4857,VALID,0,VALID,22.4119,VALID,96,VALID,0.585547,
2011-10-04, 00:46:04,VALID,999.163,VALID,0,VALID,93.4552,VALID,0,VALID,22.4331,VALID,96,VALID,0.389453,
2011-10-04, 00:47:04,VALID,999.137,VALID,0,VALID,93.4476,VALID,0,VALID,22.3924,VALID,96,VALID,0.348047,
2011-10-04, 00:48:04,VALID,999.132,VALID,0,VALID,93.4476,VALID,0,VALID,22.4136,VALID,96,VALID,0.607422,
2011-10-04, 00:49:04,VALID,999.116,VALID,0,VALID,93.4247,VALID,0,VALID,22.4136,VALID,96,VALID,0.717188,
2011-10-04, 00:50:04,VALID,999.108,VALID,0,VALID,93.3866,VALID,0,VALID,22.3534,VALID,96,VALID,0.721484,
2011-10-04, 00:51:04,VALID,999.089,VALID,0,VALID,93.3637,VALID,0,VALID,22.3746,VALID,96,VALID,0.800391,
2011-10-04, 00:52:04,VALID,999.056,VALID,0,VALID,93.3484,VALID,0,VALID,22.3941,VALID,96,VALID,0.780859,
2011-10-04, 00:53:04,VALID,999.057,VALID,0,VALID,93.3484,VALID,0,VALID,22.3941,VALID,96,VALID,0.758203,
2011-10-04, 00:54:04,VALID,999.036,VALID,0,VALID,93.3789,VALID,0,VALID,22.4348,VALID,96,VALID,0.917969,
2011-10-04, 00:55:04,VALID,999.033,VALID,0,VALID,93.3789,VALID,0,VALID,22.4331,VALID,96,VALID,0.901953,
2011-10-04, 00:56:04,VALID,999.033,VALID,0,VALID,93.4094,VALID,0,VALID,22.4526,VALID,96,VALID,0.616797,
2011-10-04, 00:57:04,VALID,999.043,VALID,0,VALID,93.4247,VALID,0,VALID,22.4721,VALID,96,VALID,0.795313,
2011-10-04, 00:58:04,VALID,998.986,VALID,0,VALID,93.4171,VALID,0,VALID,22.4916,VALID,96,VALID,0.717578,
2011-10-04, 00:59:04,VALID,998.951,VALID,0,VALID,93.4171,VALID,0,VALID,22.4899,VALID,96,VALID,0.724609,
2011-10-04, 01:00:04,VALID,998.971,VALID,0,VALID,93.3942,VALID,0,VALID,22.4916,VALID,96,VALID,0.719141,
2011-10-04, 01:01:04,VALID,998.973,VALID,0,VALID,93.356,VALID,0,VALID,22.4721,VALID,96,VALID,0.593359,
2011-10-04, 01:02:04,VALID,998.982,VALID,0,VALID,93.3408,VALID,0,VALID,22.4721,VALID,96,VALID,0.677734,
2011-10-04, 01:03:04,VALID,998.979,VALID,0,VALID,93.3255,VALID,0,VALID,22.5111,VALID,96,VALID,0.599609,
2011-10-04, 01:04:04,VALID,998.998,VALID,0,VALID,93.3408,VALID,0,VALID,22.5111,VALID,96,VALID,0.735156,
2011-10-04, 01:05:04,VALID,999.006,VALID,0,VALID,93.3255,VALID,0,VALID,22.5306,VALID,96,VALID,0.830469,
2011-10-04, 01:06:04,VALID,999.008,VALID,0,VALID,93.3408,VALID,0,VALID,22.5289,VALID,96,VALID,0.558203,
2011-10-04, 01:07:04,VALID,999.01,VALID,0,VALID,93.356,VALID,0,VALID,22.5501,VALID,96,VALID,0.673828,
2011-10-04, 01:08:04,VALID,998.983,VALID,0,VALID,93.3331,VALID,0,VALID,22.5501,VALID,96,VALID,0.533203,
2011-10-04, 01:09:04,VALID,998.977,VALID,0,VALID,93.3179,VALID,0,VALID,22.5501,VALID,96,VALID,0.411328,
2011-10-04, 01:10:04,VALID,999.006,VALID,0,VALID,93.295,VALID,0,VALID,22.5501,VALID,96,VALID,0.791797,
2011-10-04, 01:11:04,VALID,999,VALID,0,VALID,93.3026,VALID,0,VALID,22.5696,VALID,96,VALID,0.726563,
2011-10-04, 01:12:04,VALID,999.033,VALID,0,VALID,93.2645,VALID,0,VALID,22.5696,VALID,96,VALID,0.782422,
2011-10-04, 01:13:04,VALID,999.05,VALID,0,VALID,93.2645,VALID,0,VALID,22.5696,VALID,96,VALID,0.686719,
2011-10-04, 01:14:04,VALID,999.042,VALID,0,VALID,93.2721,VALID,0,VALID,22.5696,VALID,96,VALID,0.55,
2011-10-04, 01:15:04,VALID,999.042,VALID,0,VALID,93.2645,VALID,0,VALID,22.5696,VALID,96,VALID,0.538672,
2011-10-04, 01:16:04,VALID,999.034,VALID,0,VALID,93.2645,VALID,0,VALID,22.5501,VALID,96,VALID,0.591797,
2011-10-04, 01:17:04,VALID,999.033,VALID,0,VALID,93.2187,VALID,0,VALID,22.5111,VALID,96,VALID,0.61875,
2011-10-04, 01:18:04,VALID,999.055,VALID,0,VALID,93.0814,VALID,0,VALID,22.3746,VALID,96,VALID,1.13086,
2011-10-04, 01:19:04,VALID,999.075,VALID,0,VALID,93.0508,VALID,0,VALID,22.3551,VALID,96,VALID,1.26641,
2011-10-04, 01:20:04,VALID,999.069,VALID,0,VALID,93.0737,VALID,0,VALID,22.3356,VALID,67,VALID,0.964844,
2011-10-04, 01:21:04,VALID,999.052,VALID,0,VALID,93.1119,VALID,0,VALID,22.3356,VALID,67,VALID,0.694922,
2011-10-04, 01:22:04,VALID,999.044,VALID,0,VALID,93.1271,VALID,0,VALID,22.3356,VALID,67,VALID,0.239063,
2011-10-04, 01:23:04,VALID,999.046,VALID,0,VALID,93.1348,VALID,0,VALID,22.2966,VALID,67,VALID,0.2875,
2011-10-04, 01:24:04,VALID,999.002,VALID,0,VALID,93.1577,VALID,0,VALID,22.3161,VALID,67,VALID,0.407031,
2011-10-04, 01:25:04,VALID,999.01,VALID,0,VALID,93.2187,VALID,0,VALID,22.3356,VALID,67,VALID,0.323828,
2011-10-04, 01:26:04,VALID,998.978,VALID,0,VALID,93.2568,VALID,0,VALID,22.3356,VALID,67,VALID,0,
2011-10-04, 01:27:04,VALID,998.993,VALID,0,VALID,93.2645,VALID,0,VALID,22.3356,VALID,67,VALID,0.283984,
2011-10-04, 01:28:04,VALID,999.028,VALID,0,VALID,93.2416,VALID,0,VALID,22.2966,VALID,67,VALID,0.411328,
2011-10-04, 01:29:04,VALID,999.02,VALID,0,VALID,93.2187,VALID,0,VALID,22.2771,VALID,67,VALID,0.423438,
2011-10-04, 01:30:04,VALID,999.029,VALID,0,VALID,93.2111,VALID,0,VALID,22.2771,VALID,67,VALID,0.533594,
2011-10-04, 01:31:04,VALID,999.013,VALID,0,VALID,93.2187,VALID,0,VALID,22.2771,VALID,67,VALID,0.542188,
2011-10-04, 01:32:04,VALID,999.031,VALID,0,VALID,93.1958,VALID,0,VALID,22.2381,VALID,67,VALID,0.741016,
2011-10-04, 01:33:04,VALID,999.026,VALID,0,VALID,93.1195,VALID,0,VALID,22.1974,VALID,67,VALID,0.567187,
2011-10-04, 01:34:04,VALID,999.026,VALID,0,VALID,93.0432,VALID,0,VALID,22.16,VALID,67,VALID,0.431641,
2011-10-04, 01:35:04,VALID,999.002,VALID,0,VALID,92.9211,VALID,0,VALID,22.1015,VALID,67,VALID,0.184375,
2011-10-04, 01:36:04,VALID,999.022,VALID,0,VALID,92.822,VALID,0,VALID,22.0235,VALID,67,VALID,0.0679687,
2011-10-04, 01:37:04,VALID,999.009,VALID,0,VALID,92.7685,VALID,0,VALID,22.0057,VALID,67,VALID,0.293359,
2011-10-04, 01:38:04,VALID,998.996,VALID,0,VALID,92.8372,VALID,0,VALID,21.9862,VALID,67,VALID,0.212891,
2011-10-04, 01:39:04,VALID,998.981,VALID,0,VALID,92.9135,VALID,0,VALID,21.9862,VALID,67,VALID,0.282031,
2011-10-04, 01:40:04,VALID,999.034,VALID,0,VALID,93.0051,VALID,0,VALID,21.965,VALID,67,VALID,0.544531,
2011-10-04, 01:41:04,VALID,999.03,VALID,0,VALID,93.0814,VALID,0,VALID,21.965,VALID,67,VALID,0.466797,
2011-10-04, 01:42:04,VALID,999.047,VALID,0,VALID,93.1424,VALID,0,VALID,21.965,VALID,67,VALID,0.554688,
2011-10-04, 01:43:04,VALID,999.08,VALID,0,VALID,93.2187,VALID,0,VALID,21.965,VALID,67,VALID,0.555859,
2011-10-04, 01:44:04,VALID,999.068,VALID,0,VALID,93.2797,VALID,0,VALID,21.9845,VALID,67,VALID,0.632422,
2011-10-04, 01:45:04,VALID,999.069,VALID,0,VALID,93.2874,VALID,0,VALID,21.9455,VALID,67,VALID,0.803516,
2011-10-04, 01:46:04,VALID,999.062,VALID,0,VALID,93.3179,VALID,0,VALID,21.926,VALID,75,VALID,0.932813,
2011-10-04, 01:47:04,VALID,999.057,VALID,0,VALID,93.3484,VALID,0,VALID,21.9455,VALID,79,VALID,1.27813,
2011-10-04, 01:48:04,VALID,999.048,VALID,0,VALID,93.3942,VALID,0,VALID,21.9455,VALID,80,VALID,1.31406,
2011-10-04, 01:49:04,VALID,999.041,VALID,0,VALID,93.4247,VALID,0,VALID,21.965,VALID,80,VALID,1.17578,
2011-10-04, 01:50:04,VALID,999.029,VALID,0,VALID,93.4628,VALID,0,VALID,21.9845,VALID,80,VALID,1.34531,
2011-10-04, 01:51:04,VALID,999.043,VALID,0,VALID,93.5086,VALID,0,VALID,21.9845,VALID,80,VALID,1.02344,
2011-10-04, 01:52:04,VALID,999.053,VALID,0,VALID,93.501,VALID,0,VALID,21.9845,VALID,80,VALID,0.935156,
2011-10-04, 01:53:04,VALID,999.024,VALID,0,VALID,93.501,VALID,0,VALID,21.9845,VALID,80,VALID,0.885547,
2011-10-04, 01:54:04,VALID,999.021,VALID,0,VALID,93.5086,VALID,0,VALID,21.9845,VALID,80,VALID,0.773047,
2011-10-04, 01:55:04,VALID,999.048,VALID,0,VALID,93.5163,VALID,0,VALID,21.9845,VALID,80,VALID,0.576172,
2011-10-04, 01:56:04,VALID,999.015,VALID,0,VALID,93.5163,VALID,0,VALID,21.965,VALID,80,VALID,0.437891,
2011-10-04, 01:57:04,VALID,999.055,VALID,0,VALID,93.5163,VALID,0,VALID,21.9455,VALID,80,VALID,0.139844,
2011-10-04, 01:58:04,VALID,999.061,VALID,0,VALID,93.4934,VALID,0,VALID,21.9065,VALID,80,VALID,0.438672,
2011-10-04, 01:59:04,VALID,999.062,VALID,0,VALID,93.4857,VALID,0,VALID,21.887,VALID,80,VALID,0.592188,
2011-10-04, 02:00:04,VALID,999.045,VALID,0,VALID,93.4628,VALID,0,VALID,21.8692,VALID,80,VALID,0.500781,
2011-10-04, 02:01:04,VALID,999.034,VALID,0,VALID,93.4476,VALID,0,VALID,21.8285,VALID,80,VALID,0.510938,
2011-10-04, 02:02:04,VALID,999.054,VALID,0,VALID,93.44,VALID,0,VALID,21.8301,VALID,80,VALID,0.574609,
2011-10-04, 02:03:04,VALID,999.03,VALID,0,VALID,93.44,VALID,0,VALID,21.809,VALID,80,VALID,0.649219,
2011-10-04, 02:04:04,VALID,999.025,VALID,0,VALID,93.4552,VALID,0,VALID,21.809,VALID,80,VALID,1.01953,
2011-10-04, 02:05:04,VALID,999.031,VALID,0,VALID,93.4628,VALID,0,VALID,21.7293,VALID,80,VALID,1.08398,
2011-10-04, 02:06:04,VALID,999.049,VALID,0,VALID,93.4552,VALID,0,VALID,21.692,VALID,80,VALID,1.0125,
2011-10-04, 02:07:04,VALID,999.061,VALID,0,VALID,93.4705,VALID,0,VALID,21.6725,VALID,80,VALID,0.807422,
2011-10-04, 02:08:04,VALID,999.083,VALID,0,VALID,93.4857,VALID,0,VALID,21.6725,VALID,80,VALID,0.455469,
2011-10-04, 02:09:04,VALID,999.086,VALID,0,VALID,93.501,VALID,0,VALID,21.653,VALID,80,VALID,0.219922,
2011-10-04, 02:10:04,VALID,999.092,VALID,0,VALID,93.5391,VALID,0,VALID,21.653,VALID,80,VALID,0.146094,
2011-10-04, 02:11:04,VALID,999.109,VALID,0,VALID,93.5468,VALID,0,VALID,21.614,VALID,80,VALID,0,
2011-10-04, 02:12:04,VALID,999.133,VALID,0,VALID,93.5697,VALID,0,VALID,21.6335,VALID,80,VALID,0,
2011-10-04, 02:13:04,VALID,999.106,VALID,0,VALID,93.6078,VALID,0,VALID,21.6335,VALID,80,VALID,0,
2011-10-04, 02:14:04,VALID,999.127,VALID,0,VALID,93.6383,VALID,0,VALID,21.653,VALID,80,VALID,0,
2011-10-04, 02:15:04,VALID,999.13,VALID,0,VALID,93.6841,VALID,0,VALID,21.6725,VALID,80,VALID,0,
2011-10-04, 02:16:04,VALID,999.151,VALID,0,VALID,93.707,VALID,0,VALID,21.692,VALID,80,VALID,0,
2011-10-04, 02:17:04,VALID,999.137,VALID,0,VALID,93.7451,VALID,0,VALID,21.6725,VALID,80,VALID,0,
2011-10-04, 02:18:04,VALID,999.135,VALID,0,VALID,93.7604,VALID,0,VALID,21.6725,VALID,80,VALID,0,
2011-10-04, 02:19:04,VALID,999.182,VALID,0,VALID,93.7833,VALID,0,VALID,21.7115,VALID,80,VALID,0,
2011-10-04, 02:20:04,VALID,999.143,VALID,0,VALID,93.8214,VALID,0,VALID,21.77,VALID,80,VALID,0,
2011-10-04, 02:21:04,VALID,999.176,VALID,0,VALID,93.8443,VALID,0,VALID,21.7895,VALID,80,VALID,0.01875,
2011-10-04, 02:22:04,VALID,999.152,VALID,0,VALID,93.8672,VALID,0,VALID,21.8285,VALID,80,VALID,0,
2011-10-04, 02:23:04,VALID,999.163,VALID,0,VALID,93.8748,VALID,0,VALID,21.848,VALID,80,VALID,0,
2011-10-04, 02:24:04,VALID,999.133,VALID,0,VALID,93.8825,VALID,0,VALID,21.848,VALID,80,VALID,0,
2011-10-04, 02:25:04,VALID,999.131,VALID,0,VALID,93.913,VALID,0,VALID,21.887,VALID,80,VALID,0,
2011-10-04, 02:26:04,VALID,999.134,VALID,0,VALID,93.913,VALID,0,VALID,21.887,VALID,80,VALID,0,
2011-10-04, 02:27:04,VALID,999.139,VALID,0,VALID,93.9435,VALID,0,VALID,21.9065,VALID,80,VALID,0,
2011-10-04, 02:28:04,VALID,999.143,VALID,0,VALID,93.9359,VALID,0,VALID,21.9065,VALID,80,VALID,0,
2011-10-04, 02:29:04,VALID,999.118,VALID,0,VALID,93.9435,VALID,0,VALID,21.887,VALID,80,VALID,0.453125,
2011-10-04, 02:30:04,VALID,999.18,VALID,0,VALID,93.9511,VALID,0,VALID,21.848,VALID,80,VALID,0.271484,
2011-10-04, 02:31:04,VALID,999.162,VALID,0,VALID,93.913,VALID,0,VALID,21.848,VALID,80,VALID,0.433594,
2011-10-04, 02:32:04,VALID,999.157,VALID,0,VALID,93.9283,VALID,0,VALID,21.8285,VALID,80,VALID,0.544922,
2011-10-04, 02:33:04,VALID,999.137,VALID,0,VALID,93.913,VALID,0,VALID,21.77,VALID,80,VALID,0.658203,
2011-10-04, 02:34:04,VALID,999.177,VALID,0,VALID,93.9054,VALID,0,VALID,21.731,VALID,80,VALID,0.51875,
2011-10-04, 02:35:04,VALID,999.2,VALID,0,VALID,93.8977,VALID,0,VALID,21.692,VALID,80,VALID,0.388281,
2011-10-04, 02:36:04,VALID,999.197,VALID,0,VALID,93.8748,VALID,0,VALID,21.692,VALID,80,VALID,0,
2011-10-04, 02:37:04,VALID,999.177,VALID,0,VALID,93.8901,VALID,0,VALID,21.6513,VALID,80,VALID,0,
2011-10-04, 02:38:04,VALID,999.211,VALID,0,VALID,93.8672,VALID,0,VALID,21.653,VALID,80,VALID,0,
2011-10-04, 02:39:04,VALID,999.222,VALID,0,VALID,93.8748,VALID,0,VALID,21.6335,VALID,80,VALID,0,
2011-10-04, 02:40:04,VALID,999.252,VALID,0,VALID,93.8748,VALID,0,VALID,21.5928,VALID,80,VALID,0,
2011-10-04, 02:41:04,VALID,999.236,VALID,0,VALID,93.8748,VALID,0,VALID,21.5945,VALID,80,VALID,0,
2011-10-04, 02:42:04,VALID,999.289,VALID,0,VALID,93.8748,VALID,0,VALID,21.575,VALID,80,VALID,0,
2011-10-04, 02:43:04,VALID,999.279,VALID,0,VALID,93.8977,VALID,0,VALID,21.5945,VALID,80,VALID,0,
2011-10-04, 02:44:04,VALID,999.294,VALID,0,VALID,93.8977,VALID,0,VALID,21.6335,VALID,80,VALID,0,
2011-10-04, 02:45:04,VALID,999.315,VALID,0,VALID,93.9054,VALID,0,VALID,21.6725,VALID,80,VALID,0,
2011-10-04, 02:46:04,VALID,999.337,VALID,0,VALID,93.913,VALID,0,VALID,21.7115,VALID,80,VALID,0,
2011-10-04, 02:47:04,VALID,999.335,VALID,0,VALID,93.9435,VALID,0,VALID,21.731,VALID,80,VALID,0,
2011-10-04, 02:48:04,VALID,999.341,VALID,0,VALID,93.9511,VALID,0,VALID,21.731,VALID,80,VALID,0,
2011-10-04, 02:49:04,VALID,999.331,VALID,0,VALID,93.9817,VALID,0.104696,VALID,21.6903,VALID,80,VALID,0,
2011-10-04, 02:50:04,VALID,999.364,VALID,0,VALID,93.9893,VALID,0,VALID,21.692,VALID,80,VALID,0,
2011-10-04, 02:51:04,VALID,999.346,VALID,0,VALID,93.9893,VALID,0,VALID,21.6725,VALID,80,VALID,0,
2011-10-04, 02:52:04,VALID,999.365,VALID,0,VALID,94.0045,VALID,0,VALID,21.6725,VALID,80,VALID,0,
2011-10-04, 02:53:04,VALID,999.359,VALID,0,VALID,94.0198,VALID,0,VALID,21.653,VALID,80,VALID,0,
2011-10-04, 02:54:04,VALID,999.388,VALID,0,VALID,94.0045,VALID,0,VALID,21.692,VALID,80,VALID,0,
2011-10-04, 02:55:04,VALID,999.398,VALID,0,VALID,94.0427,VALID,0.104696,VALID,21.7098,VALID,80,VALID,0,
2011-10-04, 02:56:04,VALID,999.433,VALID,0,VALID,94.0351,VALID,0,VALID,21.7505,VALID,80,VALID,0,
2011-10-04, 02:57:04,VALID,999.437,VALID,0,VALID,94.058,VALID,0,VALID,21.7505,VALID,80,VALID,0,
2011-10-04, 02:58:04,VALID,999.448,VALID,0,VALID,94.0732,VALID,0,VALID,21.7505,VALID,80,VALID,0,
2011-10-04, 02:59:04,VALID,999.464,VALID,0,VALID,94.058,VALID,0,VALID,21.7505,VALID,80,VALID,0,
2011-10-04, 03:00:04,VALID,999.478,VALID,0,VALID,94.0656,VALID,0,VALID,21.77,VALID,80,VALID,0,
2011-10-04, 03:01:04,VALID,999.509,VALID,0,VALID,94.0885,VALID,0,VALID,21.77,VALID,80,VALID,0,
2011-10-04, 03:02:04,VALID,999.539,VALID,0,VALID,94.119,VALID,0,VALID,21.77,VALID,80,VALID,0,
2011-10-04, 03:03:04,VALID,999.571,VALID,0,VALID,94.0961,VALID,0,VALID,21.7115,VALID,80,VALID,0,
2011-10-04, 03:04:04,VALID,999.577,VALID,0,VALID,94.1266,VALID,0,VALID,21.653,VALID,80,VALID,0,
2011-10-04, 03:05:04,VALID,999.61,VALID,0,VALID,94.119,VALID,0,VALID,21.692,VALID,80,VALID,0,
2011-10-04, 03:06:04,VALID,999.621,VALID,0,VALID,94.1266,VALID,0,VALID,21.692,VALID,80,VALID,0,
2011-10-04, 03:07:04,VALID,999.657,VALID,0,VALID,94.1343,VALID,0,VALID,21.7115,VALID,80,VALID,0,
2011-10-04, 03:08:04,VALID,999.705,VALID,0,VALID,94.1495,VALID,0,VALID,21.7115,VALID,80,VALID,0,
2011-10-04, 03:09:04,VALID,999.734,VALID,0,VALID,94.1571,VALID,0,VALID,21.731,VALID,80,VALID,0,
2011-10-04, 03:10:04,VALID,999.762,VALID,0,VALID,94.1571,VALID,0,VALID,21.731,VALID,80,VALID,0.238672,
2011-10-04, 03:11:04,VALID,999.777,VALID,0,VALID,94.1724,VALID,0,VALID,21.6725,VALID,80,VALID,0.892187,
2011-10-04, 03:12:04,VALID,999.801,VALID,0,VALID,94.1953,VALID,0,VALID,21.6335,VALID,80,VALID,1.25937,
2011-10-04, 03:13:04,VALID,999.813,VALID,0,VALID,94.1953,VALID,0,VALID,21.575,VALID,80,VALID,1.38906,
2011-10-04, 03:14:04,VALID,999.838,VALID,0,VALID,94.2029,VALID,0,VALID,21.536,VALID,80,VALID,1.15156,
2011-10-04, 03:15:04,VALID,999.829,VALID,0,VALID,94.18,VALID,0,VALID,21.497,VALID,80,VALID,0.886328,
2011-10-04, 03:16:04,VALID,999.845,VALID,0,VALID,94.1877,VALID,0,VALID,21.458,VALID,80,VALID,0.840625,
2011-10-04, 03:17:04,VALID,999.851,VALID,0,VALID,94.1724,VALID,0,VALID,21.419,VALID,80,VALID,0.563672,
2011-10-04, 03:18:04,VALID,999.897,VALID,0,VALID,94.1571,VALID,0,VALID,21.3995,VALID,80,VALID,0.500781,
2011-10-04, 03:19:04,VALID,999.882,VALID,0,VALID,94.1571,VALID,0,VALID,21.3605,VALID,80,VALID,0.05625,
2011-10-04, 03:20:04,VALID,999.887,VALID,0,VALID,94.1571,VALID,0,VALID,21.3215,VALID,80,VALID,0,
2011-10-04, 03:21:04,VALID,999.878,VALID,0,VALID,94.1419,VALID,0,VALID,21.302,VALID,80,VALID,0,
2011-10-04, 03:22:04,VALID,999.872,VALID,0,VALID,94.1495,VALID,0,VALID,21.2841,VALID,80,VALID,0,
2011-10-04, 03:23:04,VALID,999.856,VALID,0,VALID,94.119,VALID,0,VALID,21.3036,VALID,80,VALID,0.596875,
2011-10-04, 03:24:04,VALID,999.894,VALID,0,VALID,94.1419,VALID,0,VALID,21.3215,VALID,80,VALID,0.669922,
2011-10-04, 03:25:04,VALID,999.875,VALID,0,VALID,94.1343,VALID,0,VALID,21.3816,VALID,80,VALID,0.760156,
2011-10-04, 03:26:04,VALID,999.911,VALID,0,VALID,94.1266,VALID,0,VALID,21.4401,VALID,80,VALID,0.682031,
2011-10-04, 03:27:04,VALID,999.914,VALID,0,VALID,94.18,VALID,0,VALID,21.4401,VALID,80,VALID,0.65625,
2011-10-04, 03:28:04,VALID,999.932,VALID,0,VALID,94.1648,VALID,0,VALID,21.4791,VALID,80,VALID,0.582812,
2011-10-04, 03:29:04,VALID,999.95,VALID,0,VALID,94.18,VALID,0,VALID,21.5181,VALID,80,VALID,0.599609,
2011-10-04, 03:30:04,VALID,999.973,VALID,0,VALID,94.1953,VALID,0,VALID,21.5376,VALID,80,VALID,0.687891,
2011-10-04, 03:31:04,VALID,999.992,VALID,0,VALID,94.18,VALID,0,VALID,21.5571,VALID,80,VALID,0.725781,
2011-10-04, 03:32:04,VALID,1000.02,VALID,0,VALID,94.1953,VALID,0,VALID,21.5555,VALID,80,VALID,0.925781,
2011-10-04, 03:33:04,VALID,1000.03,VALID,0,VALID,94.1877,VALID,0,VALID,21.6156,VALID,80,VALID,1.11563,
2011-10-04, 03:34:04,VALID,1000.04,VALID,0,VALID,94.1877,VALID,0,VALID,21.6351,VALID,80,VALID,1.11836,
2011-10-04, 03:35:04,VALID,1000.05,VALID,0,VALID,94.2182,VALID,0,VALID,21.6351,VALID,80,VALID,1.31914,
2011-10-04, 03:36:04,VALID,1000.04,VALID,0,VALID,94.2029,VALID,0,VALID,21.5961,VALID,80,VALID,1.35078,
2011-10-04, 03:37:04,VALID,1000.08,VALID,0,VALID,94.1571,VALID,0,VALID,21.5961,VALID,80,VALID,1.30078,
2011-10-04, 03:38:04,VALID,1000.08,VALID,0,VALID,94.1648,VALID,0,VALID,21.5961,VALID,80,VALID,1.10859,
2011-10-04, 03:39:04,VALID,1000.09,VALID,0,VALID,94.1877,VALID,0,VALID,21.5766,VALID,58,VALID,1.36758,
2011-10-04, 03:40:04,VALID,1000.06,VALID,0,VALID,94.1724,VALID,0,VALID,21.5571,VALID,58,VALID,0.974609,
2011-10-04, 03:41:04,VALID,1000.08,VALID,0,VALID,94.1648,VALID,0,VALID,21.536,VALID,52,VALID,1.06836,
2011-10-04, 03:42:04,VALID,1000.07,VALID,0,VALID,94.1419,VALID,0,VALID,21.5376,VALID,51,VALID,1.08633,
2011-10-04, 03:43:04,VALID,1000.04,VALID,0,VALID,94.1266,VALID,0,VALID,21.4986,VALID,51,VALID,0.838281,
2011-10-04, 03:44:04,VALID,1000.08,VALID,0,VALID,94.1114,VALID,0,VALID,21.4791,VALID,51,VALID,1.00898,
2011-10-04, 03:45:04,VALID,1000.08,VALID,0,VALID,94.0961,VALID,0,VALID,21.4596,VALID,51,VALID,1.01367,
2011-10-04, 03:46:04,VALID,1000.08,VALID,0,VALID,94.0808,VALID,0,VALID,21.4206,VALID,51,VALID,1.19609,
2011-10-04, 03:47:04,VALID,1000.13,VALID,0,VALID,94.0808,VALID,0,VALID,21.38,VALID,37,VALID,1.18008,
2011-10-04, 03:48:04,VALID,1000.17,VALID,0,VALID,94.0503,VALID,0,VALID,21.3621,VALID,37,VALID,1.125,
2011-10-04, 03:49:04,VALID,1000.16,VALID,0,VALID,94.0503,VALID,0,VALID,21.38,VALID,37,VALID,0.927734,
2011-10-04, 03:50:04,VALID,1000.15,VALID,0,VALID,94.0656,VALID,0,VALID,21.4206,VALID,37,VALID,0.938281,